Home > Weather > Washington DC > Past weeks

Flag for U.S.A. Weather for the Past 2 Weeks in Washington DC, District of Columbia, U.S.A.

Now
42 °F

Partly sunny.


Feels Like: 36 °F
Forecast: 32 / 45 °F
Wind: 10 mph from Northeast

Location: Reagan National Airport

Current Time: Feb 8, 2016 at 10:41:50 AM

Latest Report: Feb 8, 2016 at 9:52 AM


Visibility: 10 mi

Pressure: 29.80 "Hg

Humidity: 53%

Dew point: 26 °F

Location of Washington DCLocation

Historic Weather in Washington DC — Graph

°F

Washington DC Temperature Yesterday

Maximum temperature yesterday: 46 °F (at 2:52 PM)
Minimum temperature yesterday: 30 °F (at 4:52 AM)
Average temperature yesterday: 38 °F

High & Low Weather Summary for the Past Weeks

 TemperatureHumidityPressure
High60 °F (Feb 1, 12:52 PM)100% (Feb 3, 4:52 PM)30.48 "Hg (Feb 3, 4:52 PM)
Low17 °F (Jan 25, 5:52 AM)37% (Feb 7, 2:52 PM)29.56 "Hg (Jan 29, 4:52 AM)
Average40 °F65%30.07 "Hg
* Reported Jan 24 8:52 AM — Feb 8 8:52 AM, Washington DC, Weather by CustomWeather, © 2016

Note: Actual official high and low records may vary slightly from our data, if they occured in-between our weather recording intervals... More about our weather records

Advertising

Washington DC Weather History for the Previous 24 Hours

 ConditionsComfort  
Time TempWeatherWind HumidityBarometerVisibility
8:52 AM
Mon, Feb 8
40 °FPartly sunny.13 mph49%29.82 "Hg10 mi
7:52 AM36 °FPartly sunny.8 mph57%29.82 "Hg10 mi
6:52 AM35 °FPassing clouds.10 mph56%29.81 "Hg10 mi
5:52 AM35 °FPassing clouds.7 mph59%29.79 "Hg10 mi
4:52 AM36 °FPassing clouds.13 mph57%29.78 "Hg10 mi
3:52 AM36 °FPassing clouds.10 mph57%29.76 "Hg10 mi
2:52 AM37 °FPassing clouds.13 mph54%29.77 "Hg10 mi
1:52 AM38 °FPassing clouds.13 mph55%29.80 "Hg10 mi
12:52 AM38 °FMostly cloudy.10 mph58%29.83 "Hg10 mi
11:52 PM
Sun, Feb 7
40 °FOvercast.10 mph53%29.86 "Hg10 mi
10:52 PM40 °FOvercast.10 mph53%29.88 "Hg10 mi
9:52 PM39 °FOvercast.9 mph55%29.91 "Hg10 mi
8:52 PM41 °FOvercast.13 mph49%29.92 "Hg10 mi
7:52 PM42 °FOvercast.9 mph45%29.96 "Hg10 mi
6:52 PM42 °FOvercast.8 mph45%29.96 "Hg10 mi
5:52 PM43 °FOvercast.8 mph43%29.98 "Hg10 mi
4:52 PM43 °FOvercast.9 mph45%29.98 "Hg10 mi
3:52 PM45 °FOvercast.10 mph40%30.01 "Hg10 mi
2:52 PM46 °FHigh level clouds.14 mph37%30.01 "Hg9 mi
1:52 PM45 °FHigh level clouds.12 mph45%30.06 "Hg10 mi
12:52 PM45 °FHigh level clouds.8 mph49%30.10 "Hg10 mi
11:52 AM44 °FHigh level clouds.6 mph47%30.12 "Hg10 mi
10:52 AM40 °FPartly sunny.9 mph55%30.16 "Hg10 mi
Weather by CustomWeather, © 2016

See weather overviewHow to use our weather pages